Zurück zum Katalog

STARLINK-34743

AktivKommunikationSSO
NORAD 64937·PAYLOAD·🇺🇸 United States

Gestartet Jul 26, 2025 von Vandenberg Space Force Base

Loading…

Nächste Überflüge (nächste 24 Stunden)

TLE

AktuellSource: CelesTrak SupGP

Epoche: Sep 14, 2026, 20:59 UTC

1 64937C 25158F   26257.87479167  .00019711  00000+0  61214-3 0  2573
2 64937  97.2851 116.2292 0001673  96.1522 212.0332 15.33415624    16

Verfolge STARLINK-34743 in Echtzeit mit AllMySat

Download on the App Store